• In Hungary
  • List of Countries
  • For 7 days
  • Water Temperature
  • Satellite Maps
  • Weather Map
  • News
  • Weather Widgets
  • user-avatar
    Login

    Hourly Weather Moschinovo

    Today, 23 May, Wednesday

    Time Temperature Precipitation Wind Pressure Humidity
    00:00 +10°C° 0 mm 2 mps 750 mmHg 95%
    01:00 +10°C° 0 mm 2 mps 750 mmHg 95%
    02:00 +10°C° 0 mm 1 mps 750 mmHg 95%
    03:00 +11°C° 0 mm 1 mps 750 mmHg 95%
    04:00 +11°C° 0 mm 1 mps 750 mmHg 95%
    05:00 +11°C° 0 mm 1 mps 750 mmHg 95%
    06:00 +13°C° 0 mm 1 mps 750 mmHg 90%
    07:00 +15°C° 0 mm 1 mps 750 mmHg 84%
    08:00 +17°C° 0 mm 2 mps 750 mmHg 77%
    09:00 +18°C° 0 mm 2 mps 750 mmHg 72%
    10:00 +19°C° 0 mm 2 mps 750 mmHg 67%
    11:00 +21°C° 0 mm 2 mps 750 mmHg 62%
    12:00 +21°C° 0.2 mm 3 mps 750 mmHg 63%
    13:00 +21°C° 0.2 mm 3 mps 749 mmHg 64%
    14:00 +22°C° 0 mm 3 mps 749 mmHg 65%
    15:00 +21°C° 0.5 mm 3 mps 749 mmHg 69%
    16:00 +21°C° 0.5 mm 3 mps 749 mmHg 72%
    17:00 +21°C° 0.5 mm 2 mps 749 mmHg 75%
    18:00 +19°C° 0.6 mm 2 mps 748 mmHg 79%
    19:00 +18°C° 0.6 mm 2 mps 748 mmHg 84%
    20:00 +17°C° 0.6 mm 2 mps 748 mmHg 88%
    21:00 +16°C° 0.9 mm 2 mps 748 mmHg 90%
    22:00 +15°C° 0.9 mm 1 mps 748 mmHg 91%
    23:00 +15°C° 0.9 mm 1 mps 748 mmHg 92%

    Tomorrow, 24 May, Thursday

    Time Temperature Precipitation Wind Pressure Humidity
    00:00 +14°C° 0.3 mm 1 mps 748 mmHg 93%
    01:00 +14°C° 0.3 mm 1 mps 748 mmHg 93%
    02:00 +13°C° 0.3 mm 1 mps 748 mmHg 94%
    03:00 +13°C° 0.1 mm 1 mps 748 mmHg 94%
    04:00 +13°C° 0.1 mm 1 mps 748 mmHg 94%
    05:00 +13°C° 0.1 mm 1 mps 748 mmHg 95%
    06:00 +15°C° 0.1 mm 1 mps 748 mmHg 91%
    07:00 +16°C° 0.1 mm 1 mps 748 mmHg 87%
    08:00 +19°C° 0.1 mm 1 mps 748 mmHg 83%
    09:00 +19°C° 0.7 mm 2 mps 748 mmHg 78%
    10:00 +20°C° 0.7 mm 2 mps 748 mmHg 72%
    11:00 +21°C° 0.7 mm 2 mps 748 mmHg 67%
    12:00 +23°C° 0.7 mm 2 mps 748 mmHg 67%
    13:00 +23°C° 0.7 mm 2 mps 748 mmHg 66%
    14:00 +23°C° 0.7 mm 2 mps 748 mmHg 66%
    15:00 +22°C° 0.7 mm 3 mps 748 mmHg 70%
    16:00 +21°C° 0.7 mm 3 mps 747 mmHg 73%
    17:00 +21°C° 0.7 mm 3 mps 747 mmHg 77%
    18:00 +19°C° 0.3 mm 3 mps 747 mmHg 81%
    19:00 +18°C° 0.3 mm 3 mps 748 mmHg 85%
    20:00 +17°C° 0.3 mm 3 mps 748 mmHg 90%
    21:00 +16°C° 0 mm 3 mps 748 mmHg 90%
    22:00 +14°C° 0 mm 3 mps 748 mmHg 90%
    23:00 +14°C° 0 mm 3 mps 748 mmHg 90%

    Day after tomorrow, 25 May, Friday

    Time Temperature Precipitation Wind Pressure Humidity
    00:00 +13°C° 0 mm 3 mps 749 mmHg 90%
    01:00 +13°C° 0 mm 3 mps 749 mmHg 91%
    02:00 +12°C° 0 mm 3 mps 749 mmHg 91%
    03:00 +12°C° 0 mm 3 mps 750 mmHg 92%
    04:00 +12°C° 0 mm 3 mps 750 mmHg 92%
    05:00 +12°C° 0 mm 4 mps 750 mmHg 92%
    06:00 +14°C° 0 mm 4 mps 751 mmHg 88%
    07:00 +15°C° 0 mm 4 mps 751 mmHg 85%
    08:00 +16°C° 0 mm 5 mps 752 mmHg 81%
    09:00 +17°C° 0 mm 5 mps 752 mmHg 75%
    10:00 +19°C° 0 mm 5 mps 752 mmHg 68%
    11:00 +20°C° 0 mm 5 mps 753 mmHg 62%
    12:00 +21°C° 0 mm 5 mps 753 mmHg 59%
    13:00 +21°C° 0 mm 5 mps 753 mmHg 56%
    14:00 +21°C° 0 mm 5 mps 753 mmHg 53%
    15:00 +20°C° 0 mm 4 mps 753 mmHg 56%
    16:00 +20°C° 0 mm 4 mps 753 mmHg 59%
    17:00 +20°C° 0 mm 4 mps 753 mmHg 62%
    18:00 +18°C° 0 mm 4 mps 754 mmHg 66%
    19:00 +16°C° 0 mm 3 mps 754 mmHg 70%
    20:00 +13°C° 0 mm 3 mps 754 mmHg 75%
    21:00 +12°C° 0 mm 3 mps 755 mmHg 75%
    22:00 +12°C° 0 mm 3 mps 755 mmHg 76%
    23:00 +11°C° 0 mm 3 mps 756 mmHg 76%

    26 May, Saturday

    Time Temperature Precipitation Wind Pressure Humidity
    00:00 +10°C° 0 mm 3 mps 756 mmHg 78%
    01:00 +9°C° 0 mm 3 mps 757 mmHg 79%
    02:00 +9°C° 0 mm 2 mps 757 mmHg 80%
    03:00 +9°C° 0 mm 2 mps 757 mmHg 80%
    04:00 +9°C° 0 mm 2 mps 758 mmHg 80%
    05:00 +8°C° 0 mm 2 mps 758 mmHg 79%
    06:00 +10°C° 0 mm 3 mps 758 mmHg 74%
    07:00 +12°C° 0 mm 3 mps 758 mmHg 69%
    08:00 +14°C° 0 mm 3 mps 759 mmHg 65%
    09:00 +16°C° 0 mm 3 mps 759 mmHg 61%
    10:00 +17°C° 0 mm 3 mps 759 mmHg 57%
    11:00 +18°C° 0 mm 3 mps 759 mmHg 53%
    12:00 +19°C° 0 mm 4 mps 759 mmHg 52%
    13:00 +19°C° 0 mm 4 mps 758 mmHg 51%
    14:00 +20°C° 0 mm 4 mps 758 mmHg 50%
    15:00 +19°C° 0 mm 3 mps 758 mmHg 53%
    16:00 +19°C° 0 mm 3 mps 758 mmHg 56%
    17:00 +19°C° 0 mm 3 mps 758 mmHg 59%
    18:00 +17°C° 0 mm 2 mps 758 mmHg 64%
    19:00 +16°C° 0 mm 2 mps 757 mmHg 69%
    20:00 +14°C° 0 mm 2 mps 757 mmHg 74%
    21:00 +13°C° 0 mm 2 mps 758 mmHg 76%
    22:00 +12°C° 0 mm 2 mps 758 mmHg 78%
    23:00 +10°C° 0 mm 2 mps 758 mmHg 80%

    27 May, Sunday

    Time Temperature Precipitation Wind Pressure Humidity
    00:00 +9°C° 0 mm 2 mps 758 mmHg 82%
    01:00 +9°C° 0 mm 2 mps 758 mmHg 83%
    02:00 +8°C° 0 mm 2 mps 758 mmHg 84%
    03:00 +9°C° 0 mm 2 mps 758 mmHg 85%
    04:00 +9°C° 0 mm 2 mps 758 mmHg 85%
    05:00 +9°C° 0 mm 2 mps 758 mmHg 85%
    06:00 +12°C° 0 mm 2 mps 758 mmHg 79%
    07:00 +14°C° 0 mm 2 mps 758 mmHg 73%
    08:00 +15°C° 0 mm 2 mps 758 mmHg 67%
    09:00 +17°C° 0 mm 2 mps 758 mmHg 63%
    10:00 +18°C° 0 mm 2 mps 758 mmHg 58%
    11:00 +19°C° 0 mm 2 mps 757 mmHg 54%
    12:00 +19°C° 0 mm 2 mps 757 mmHg 53%
    13:00 +20°C° 0 mm 2 mps 757 mmHg 52%
    14:00 +20°C° 0 mm 2 mps 756 mmHg 51%
    15:00 +20°C° 0 mm 2 mps 756 mmHg 53%
    16:00 +21°C° 0 mm 1 mps 755 mmHg 54%
    17:00 +21°C° 0 mm 1 mps 755 mmHg 56%
    18:00 +19°C° 0 mm 1 mps 755 mmHg 62%
    19:00 +16°C° 0 mm 1 mps 755 mmHg 68%
    20:00 +14°C° 0 mm 1 mps 755 mmHg 75%
    21:00 +14°C° 0 mm 1 mps 755 mmHg 77%
    22:00 +13°C° 0 mm 1 mps 755 mmHg 79%
    23:00 +12°C° 0 mm 1 mps 755 mmHg 81%

    28 May, Monday

    Time Temperature Precipitation Wind Pressure Humidity
    00:00 +12°C° 0 mm 1 mps 755 mmHg 82%
    01:00 +12°C° 0 mm 1 mps 755 mmHg 84%
    02:00 +11°C° 0 mm 1 mps 755 mmHg 85%
    03:00 +11°C° 0 mm 1 mps 755 mmHg 85%
    04:00 +12°C° 0 mm 1 mps 755 mmHg 85%
    05:00 +12°C° 0 mm 2 mps 755 mmHg 85%
    06:00 +14°C° 0 mm 2 mps 755 mmHg 80%
    07:00 +16°C° 0 mm 2 mps 755 mmHg 75%
    08:00 +18°C° 0 mm 2 mps 755 mmHg 70%
    09:00 +20°C° 0 mm 2 mps 755 mmHg 66%
    10:00 +21°C° 0 mm 2 mps 755 mmHg 63%
    11:00 +24°C° 0 mm 2 mps 755 mmHg 59%
    12:00 +24°C° 0 mm 2 mps 755 mmHg 57%
    13:00 +25°C° 0 mm 2 mps 755 mmHg 56%
    14:00 +25°C° 0 mm 2 mps 755 mmHg 54%
    15:00 +25°C° 0 mm 2 mps 754 mmHg 57%
    16:00 +25°C° 0 mm 2 mps 754 mmHg 59%
    17:00 +25°C° 0 mm 2 mps 754 mmHg 62%
    18:00 +23°C° 0 mm 2 mps 754 mmHg 67%
    19:00 +19°C° 0 mm 2 mps 754 mmHg 72%
    20:00 +17°C° 0 mm 3 mps 754 mmHg 77%
    21:00 +16°C° 0 mm 3 mps 755 mmHg 77%
    22:00 +14°C° 0 mm 3 mps 755 mmHg 76%
    23:00 +13°C° 0 mm 3 mps 755 mmHg 76%
    Show more